Temperature
8 9 9 10 10 11 12 12 13 13 13 13 14 14 14 14 14 14 14 14 14 15 15 15 16 16 16 16 16 16 16 17 17 17 17 17 17 17 17 17 17 17 17
8 9 10 10 11 11 12 12 13 13 13 13 13 13 13 13 13 13 14 14 14 14 14 14 15 16 16 16 16 16 16 17 17 17 17 17 17 17 17 17 17 17 17
9 9 10 11 11 11 11 12 12 12 13 13 13 13 13 13 13 13 13 13 13 13 14 14 14 15 15 16 16 16 16 17 17 17 17 17 17 17 16 17 17 17 17
9 9 10 10 10 10 11 11 11 12 12 12 12 12 12 12 12 12 13 13 13 13 13 13 13 14 14 15 15 16 16 16 16 17 17 17 17 17 17 16 17 17 17
9 9 10 10 10 10 10 10 11 11 11 11 12 12 12 12 12 12 12 12 12 12 12 12 13 13 14 14 14 15 15 16 16 16 16 16 16 16 16 16 16 17 17
9 9 9 9 9 10 10 10 10 10 10 10 11 11 11 11 12 11 12 12 12 12 12 12 12 12 13 13 14 14 14 15 15 16 16 16 16 16 16 16 16 16 17
8 9 9 9 9 9 9 9 9 9 9 9 9 9 10 10 11 11 11 11 11 11 11 11 11 12 12 13 13 13 14 14 14 15 15 16 16 16 16 16 16 16 16
8 8 9 9 9 9 9 9 9 9 8 8 8 8 8 8 9 9 10 10 10 11 11 11 11 11 12 12 12 13 13 13 14 14 15 15 16 16 16 16 16 16 16
8 8 8 8 8 8 7 7 7 6 6 6 6 5 6 6 7 7 7 8 8 9 9 10 10 11 11 11 12 12 12 13 13 14 14 15 15 15 15 16 16 16 16
7 7 7 6 6 6 6 5 5 5 4 4 4 4 4 5 5 5 5 6 6 7 7 8 9 10 11 11 11 11 12 12 13 13 14 14 15 15 15 16 16 16 16
6 6 5 5 4 4 4 4 3 3 3 3 2 2 3 3 4 4 4 4 4 5 6 6 7 8 10 10 10 11 11 11 12 13 13 14 14 14 15 15 16 16 16
5 4 4 3 3 2 2 2 2 2 2 1 0 0 1 1 2 2 3 3 3 4 4 5 6 7 8 9 10 10 10 11 11 12 12 13 14 14 14 15 15 15 15
3 3 2 2 2 2 2 1 1 1 1 0 -1 -1 -1 -0 0 1 2 2 2 3 3 4 4 5 6 7 8 9 10 10 11 11 12 12 13 13 14 14 15 15 15
2 2 2 2 2 2 1 1 1 0 0 -1 -2 -2 -2 -2 -1 -1 -0 -0 -0 0 1 2 2 3 4 5 6 7 8 9 10 10 11 12 12 13 13 14 14 15 15
2 2 2 2 1 1 1 1 0 0 -0 -1 -2 -3 -3 -3 -3 -2 -2 -2 -2 -2 -1 -0 0 1 2 3 4 5 7 8 9 10 10 11 12 12 13 13 14 14 14
2 2 1 1 1 1 1 0 -0 -0 -1 -1 -2 -3 -4 -4 -4 -4 -4 -4 -4 -3 -3 -3 -2 -2 0 1 3 4 5 6 8 9 10 10 11 12 12 13 13 14 14
2 1 1 0 0 0 0 -0 -1 -1 -2 -2 -3 -3 -4 -4 -5 -5 -5 -5 -5 -5 -5 -4 -4 -3 -2 -1 1 3 4 5 6 8 9 10 10 11 12 12 13 13 13
2 1 0 -0 -0 -0 -0 -1 -1 -2 -2 -3 -3 -4 -4 -5 -5 -5 -6 -6 -6 -6 -6 -6 -6 -5 -4 -3 -1 1 2 4 5 6 7 9 10 10 11 11 12 12 13
1 0 -0 -0 -0 -1 -1 -1 -1 -2 -3 -3 -4 -4 -5 -5 -5 -6 -7 -7 -7 -7 -6 -7 -7 -7 -6 -6 -4 -2 0 2 4 5 6 7 8 9 10 10 11 11 12
1 -0 -1 -1 -1 -1 -1 -1 -1 -2 -3 -4 -5 -5 -6 -6 -6 -7 -7 -8 -8 -7 -7 -7 -7 -7 -7 -7 -6 -4 -2 1 2 3 4 5 7 8 9 10 10 11 11
0 -1 -2 -2 -2 -2 -2 -2 -3 -3 -4 -5 -5 -6 -6 -7 -7 -7 -8 -8 -8 -8 -8 -8 -8 -8 -8 -7 -7 -6 -3 -1 1 1 2 3 4 6 8 9 9 10 11
-1 -2 -2 -2 -2 -3 -3 -4 -5 -5 -5 -6 -6 -7 -7 -8 -8 -9 -9 -9 -9 -9 -9 -9 -9 -9 -9 -8 -8 -7 -6 -4 -1 1 2 2 2 4 6 7 8 9 9
-2 -2 -2 -3 -3 -4 -4 -5 -5 -5 -6 -6 -7 -7 -8 -8 -9 -9 -10 -10 -10 -10 -10 -10 -10 -10 -10 -9 -8 -8 -7 -5 -6 -3 -1 0 2 2 3 5 7 8 9
-2 -3 -3 -3 -4 -5 -5 -6 -6 -7 -7 -8 -9 -9 -9 -9 -9 -10 -10 -11 -11 -11 -11 -11 -11 -11 -10 -10 -9 -8 -8 -7 -6 -5 -4 -2 -1 1 2 3 6 7 8
-2 -3 -4 -4 -5 -5 -6 -7 -7 -8 -9 -9 -9 -9 -9 -9 -10 -10 -11 -11 -11 -11 -11 -11 -11 -11 -11 -10 -10 -9 -8 -7 -7 -6 -6 -5 -2 -0 1 2 4 6 8
-3 -4 -4 -5 -5 -6 -7 -7 -8 -9 -9 -10 -10 -10 -11 -11 -11 -11 -12 -12 -12 -12 -12 -11 -11 -11 -10 -10 -10 -9 -9 -8 -7 -7 -6 -6 -6 -2 -0 2 3 5 7
Wind_Speed
11 25 31 32 32 32 32 32 33 33 33 33 33 33 32 31 30 28 25 21 18 16 15 14 14 14 14 13 12 11 10 10 9 7 5 4 4 3 4 3 1 5 7
16 24 30 32 32 32 32 32 32 32 32 32 33 32 32 32 32 31 30 28 25 22 18 16 15 16 16 15 14 12 11 11 11 10 9 7 7 7 6 4 3 8 9
21 26 29 32 32 32 32 32 32 32 32 32 32 32 31 31 31 31 31 31 30 28 25 21 17 16 16 16 15 14 13 13 12 12 11 9 8 9 10 8 6 9 10
24 27 28 31 32 32 32 32 32 32 32 32 32 32 31 31 30 30 30 30 30 30 30 28 24 19 17 16 15 15 15 15 14 13 11 10 9 10 13 12 11 10 11
26 27 28 31 32 32 32 33 32 32 32 32 32 32 31 31 31 30 31 30 30 30 30 29 28 25 21 18 16 15 16 16 15 14 12 12 11 12 14 16 15 14 13
24 27 28 31 32 31 31 32 32 32 32 32 32 31 32 32 31 31 31 31 30 30 29 29 29 29 27 23 19 17 16 16 16 13 13 14 13 15 17 19 19 17 15
21 26 28 31 32 31 31 32 31 31 32 31 31 31 32 32 32 32 32 31 31 30 30 29 29 29 29 28 24 20 18 16 14 13 13 14 15 16 17 19 21 19 18
21 25 28 31 32 32 31 32 31 31 31 31 31 31 31 32 32 32 33 32 31 30 30 29 30 30 29 28 27 25 21 19 15 12 13 15 18 19 18 20 21 21 20
23 26 27 29 30 30 29 30 31 30 31 30 30 30 30 31 31 31 33 32 32 31 30 30 30 30 30 28 26 27 26 24 17 13 14 14 18 21 21 21 21 22 21
20 23 26 28 29 28 26 28 30 29 30 30 29 30 29 29 29 30 31 32 32 31 31 30 30 30 30 28 27 27 27 22 16 15 13 14 20 22 22 22 22 23 23
16 20 25 27 29 28 25 25 27 27 29 28 27 28 26 25 26 27 30 30 31 31 31 31 31 29 29 26 27 27 22 17 20 15 13 17 21 23 24 24 24 24 24
13 14 22 24 26 26 23 22 23 23 25 26 25 24 23 23 25 26 28 29 29 29 30 30 30 27 25 22 24 24 18 20 16 14 14 19 22 23 24 25 27 26 26
8 11 16 19 23 23 22 21 21 22 23 24 24 24 23 22 23 24 23 24 24 25 25 26 25 23 22 21 20 20 20 19 15 15 17 22 22 23 23 25 28 28 27
8 8 12 17 22 23 22 21 20 21 21 22 23 24 23 20 21 22 21 22 21 21 22 22 20 22 22 22 21 20 21 18 17 16 17 22 24 23 23 23 27 29 29
7 8 11 18 23 23 21 22 21 22 22 23 22 23 24 20 19 21 20 20 20 21 21 19 20 20 19 20 20 20 19 20 20 19 17 24 25 24 23 22 24 27 28
8 9 12 16 22 22 21 21 20 22 23 22 22 23 25 22 20 20 19 18 19 22 21 20 20 16 15 16 16 19 19 19 18 20 20 21 23 24 23 21 22 26 26
6 7 10 16 20 19 18 20 20 21 22 21 21 23 24 23 22 21 17 15 19 22 21 20 18 15 13 13 15 16 16 17 18 20 21 18 18 20 22 21 20 24 26
6 7 10 16 16 16 17 18 18 19 20 20 21 22 24 23 23 21 15 14 20 20 18 14 10 13 12 12 13 14 13 15 18 19 18 18 16 15 17 21 21 23 26
6 7 8 11 13 14 15 16 16 16 17 19 20 21 23 23 24 21 15 16 20 17 14 13 12 13 14 14 14 14 13 15 16 15 15 16 15 15 13 16 19 20 24
6 6 7 10 12 14 14 14 13 13 15 17 18 20 22 23 23 21 16 18 18 12 10 10 13 12 12 14 16 16 15 15 13 11 12 11 12 13 12 12 12 14 18
7 7 7 8 9 11 8 10 10 10 9 13 18 20 21 23 23 20 17 16 16 9 11 12 13 13 12 12 13 15 13 11 11 7 8 10 10 12 13 11 9 9 11
5 6 7 8 7 10 9 8 7 7 7 13 16 17 20 22 21 19 18 15 14 9 10 11 12 10 11 11 11 12 8 7 6 10 7 8 9 12 13 12 11 9 9
4 6 8 7 7 10 12 11 11 5 5 6 6 9 19 21 20 19 20 17 15 10 10 11 10 11 12 12 8 7 7 6 13 7 6 6 10 12 11 11 12 13 12
4 5 6 7 6 9 12 9 10 10 9 9 7 8 17 20 19 19 21 18 15 12 10 11 11 11 11 12 10 7 8 10 8 8 7 6 9 12 12 12 13 12 13
4 5 6 7 6 8 10 8 9 9 8 9 9 10 9 15 17 19 20 17 15 12 10 10 11 11 10 11 11 11 10 10 10 9 14 14 13 9 10 13 12 11 11
5 6 6 7 7 7 8 7 9 10 11 13 13 11 10 8 12 18 20 17 17 14 11 11 10 12 11 12 12 11 10 9 9 8 12 16 17 14 13 11 11 10 8
Wind_Direction
336 350 4 11 14 17 19 22 23 23 23 22 20 17 15 14 12 10 6 359 351 345 339 335 331 327 323 318 314 312 309 303 299 293 283 271 255 219 184 167 206 179 161
350 2 7 12 13 15 17 19 20 21 21 21 20 18 17 16 14 12 9 6 0 353 344 334 330 324 319 315 309 303 296 291 288 284 278 266 253 241 213 193 212 177 170
15 10 8 12 12 13 15 16 17 18 18 19 18 17 16 15 14 13 10 7 4 359 354 344 333 324 317 312 306 300 292 284 279 276 275 267 255 246 228 200 195 181 176
24 14 10 15 13 13 15 15 15 16 15 15 15 14 14 12 11 10 9 6 3 0 357 352 344 332 320 312 305 299 292 284 276 270 265 259 254 251 235 214 202 190 182
27 16 11 17 15 14 15 15 14 15 13 13 12 11 11 10 8 8 6 3 1 359 357 354 351 344 334 320 309 300 294 286 278 268 257 254 252 259 250 225 211 199 189
28 19 14 17 15 15 15 15 13 14 12 11 10 10 10 8 6 6 4 1 359 357 355 354 353 350 345 335 319 304 296 291 285 267 254 252 250 256 260 231 214 205 196
27 22 18 17 16 14 15 15 13 13 12 10 10 10 9 7 5 4 2 358 357 355 353 352 351 349 346 343 333 317 303 299 290 267 253 250 250 255 260 233 216 208 202
30 24 21 17 15 13 13 13 12 12 11 10 9 9 9 7 4 2 359 356 355 353 353 351 350 347 345 342 342 337 323 310 295 280 260 250 251 253 254 236 220 212 207
33 27 21 18 14 11 10 12 11 11 9 9 8 8 8 6 3 1 357 354 354 353 353 351 349 345 343 340 340 340 338 327 304 285 274 261 258 253 249 236 220 214 209
33 27 21 18 13 7 6 10 10 9 8 7 7 7 9 6 3 1 356 353 353 353 353 350 348 346 344 340 339 339 337 333 321 295 277 269 266 261 251 236 221 215 210
27 24 20 17 11 5 4 6 8 7 5 4 4 7 8 6 1 360 353 352 352 351 351 348 347 347 345 340 338 337 338 333 324 308 288 277 275 270 259 243 227 217 212
21 18 19 18 9 4 2 360 8 5 2 359 0 5 7 5 1 358 352 351 351 350 349 346 346 347 346 340 336 336 333 329 325 320 307 295 286 280 270 252 236 222 214
22 15 12 18 10 6 4 1 8 4 1 358 0 5 7 4 1 356 351 348 347 350 347 343 343 343 342 338 333 331 330 328 322 318 314 311 304 292 281 259 242 230 218
23 7 7 22 14 8 8 2 5 3 1 359 360 6 7 5 2 356 350 344 346 347 343 341 337 336 338 334 332 330 329 325 318 314 310 315 316 307 293 269 245 234 224
26 12 12 23 16 9 9 4 3 1 359 355 358 4 6 3 0 354 347 344 345 344 340 337 334 334 335 332 330 329 324 320 314 313 311 311 311 311 305 279 249 236 228
30 16 10 21 15 9 9 3 1 359 355 354 356 360 2 0 358 353 345 344 346 342 336 334 327 330 329 328 325 324 319 315 313 312 308 306 307 309 310 295 258 238 230
35 19 15 16 12 7 6 2 359 356 355 353 354 357 358 358 355 350 342 345 346 342 338 334 327 328 326 325 322 320 317 315 312 309 305 301 300 304 306 307 279 247 235
38 28 20 12 7 3 1 357 354 353 354 352 354 356 355 355 353 347 339 344 344 342 340 334 334 331 325 322 320 316 314 312 307 303 301 297 296 295 298 301 297 264 243
44 32 17 4 359 355 353 352 349 351 352 351 353 354 353 353 350 344 338 343 344 341 337 336 336 330 325 323 319 315 313 306 299 298 299 299 296 291 286 290 295 284 257
39 27 12 356 352 351 352 352 351 351 351 350 350 351 352 350 347 343 344 343 343 339 335 333 332 328 325 322 320 315 306 296 290 291 301 308 306 307 301 290 291 291 272
29 12 2 352 347 354 355 355 350 347 342 344 346 347 348 348 346 343 347 341 341 336 330 330 331 328 329 327 322 319 303 283 283 311 320 319 327 339 329 317 303 293 283
9 349 355 354 349 354 351 342 336 326 322 332 333 338 344 344 342 345 342 336 335 332 326 329 327 329 327 329 322 321 317 311 332 315 307 314 337 339 331 335 331 325 299
345 346 3 351 346 349 348 345 342 324 315 329 328 335 339 337 336 338 335 331 331 330 326 326 324 328 324 321 315 313 315 317 324 302 306 324 337 328 327 329 334 334 328
333 344 352 344 339 345 349 347 346 345 336 331 327 323 328 330 330 334 332 329 329 327 323 323 329 318 317 317 314 293 295 302 302 310 311 316 318 321 320 324 322 318 319
346 345 340 336 333 339 343 338 335 332 324 324 325 323 323 326 328 330 328 328 326 324 319 316 317 315 313 309 308 306 302 297 281 289 302 311 315 308 313 312 307 303 306
344 338 333 333 330 332 335 331 329 326 325 328 330 328 329 324 325 325 326 327 323 321 318 315 313 311 308 304 303 302 301 297 296 296 295 304 306 307 308 301 296 291 292
Height
1612 1609 1606 1601 1597 1594 1590 1587 1584 1581 1578 1575 1572 1570 1567 1565 1563 1561 1558 1556 1554 1552 1551 1549 1547 1546 1545 1544 1543 1542 1542 1542 1541 1541 1541 1540 1540 1540 1540 1540 1540 1540 1540
1615 1611 1607 1602 1599 1595 1592 1588 1585 1582 1578 1575 1572 1569 1567 1564 1562 1559 1557 1555 1553 1551 1549 1547 1545 1543 1542 1542 1541 1540 1539 1539 1539 1539 1539 1539 1539 1538 1538 1539 1539 1539 1539
1616 1613 1608 1604 1600 1596 1592 1589 1586 1582 1579 1575 1572 1569 1566 1563 1561 1558 1555 1553 1551 1549 1547 1545 1543 1541 1540 1538 1538 1537 1536 1536 1536 1536 1536 1536 1537 1537 1537 1537 1538 1538 1538
1617 1613 1608 1605 1601 1597 1593 1589 1586 1582 1578 1575 1572 1568 1565 1562 1559 1556 1554 1551 1549 1546 1544 1542 1540 1539 1537 1536 1534 1533 1533 1532 1532 1532 1533 1534 1534 1534 1535 1535 1536 1536 1537
1617 1613 1609 1605 1601 1597 1593 1589 1585 1581 1578 1574 1571 1567 1564 1561 1557 1554 1551 1549 1546 1544 1542 1539 1537 1535 1534 1532 1531 1530 1529 1528 1528 1528 1529 1530 1530 1531 1532 1532 1533 1534 1535
1617 1613 1609 1605 1601 1597 1593 1588 1584 1580 1576 1572 1569 1565 1562 1558 1555 1552 1549 1546 1543 1541 1538 1536 1534 1531 1529 1528 1527 1526 1525 1524 1524 1524 1524 1526 1527 1527 1528 1529 1530 1531 1532
1616 1613 1609 1605 1601 1596 1592 1587 1583 1579 1574 1570 1566 1562 1558 1555 1551 1548 1546 1543 1540 1537 1534 1532 1530 1528 1526 1524 1523 1522 1521 1520 1519 1519 1519 1521 1522 1523 1524 1526 1527 1528 1529
1616 1612 1608 1604 1600 1595 1591 1586 1581 1576 1572 1567 1563 1558 1554 1551 1547 1544 1541 1538 1535 1532 1529 1527 1525 1523 1521 1520 1518 1516 1515 1515 1514 1514 1514 1516 1517 1518 1520 1521 1523 1524 1526
1616 1612 1607 1602 1598 1593 1588 1583 1579 1574 1569 1564 1560 1555 1551 1547 1544 1540 1537 1533 1530 1527 1524 1521 1519 1517 1516 1514 1513 1511 1509 1508 1508 1508 1509 1510 1511 1513 1514 1516 1518 1520 1522
1614 1610 1605 1600 1595 1590 1586 1581 1576 1572 1567 1562 1557 1553 1548 1545 1541 1537 1533 1529 1525 1522 1518 1516 1513 1511 1510 1508 1507 1506 1505 1504 1503 1502 1502 1503 1505 1506 1509 1510 1513 1515 1517
1612 1608 1603 1598 1593 1588 1583 1579 1574 1570 1565 1560 1555 1550 1546 1542 1537 1533 1529 1525 1521 1517 1514 1511 1508 1505 1503 1502 1501 1500 1499 1498 1497 1496 1496 1497 1498 1500 1502 1504 1507 1509 1512
1610 1606 1601 1596 1590 1585 1580 1575 1571 1566 1562 1558 1552 1547 1543 1539 1535 1530 1526 1521 1516 1513 1510 1507 1503 1499 1497 1495 1494 1493 1492 1492 1491 1490 1490 1491 1491 1492 1494 1497 1500 1503 1506
1610 1605 1599 1593 1589 1583 1578 1574 1569 1564 1560 1555 1550 1545 1540 1536 1531 1527 1522 1517 1512 1508 1504 1501 1498 1494 1491 1489 1487 1486 1485 1485 1484 1484 1484 1484 1484 1485 1487 1489 1492 1496 1499
1609 1603 1598 1593 1588 1583 1578 1572 1567 1562 1557 1552 1548 1542 1537 1532 1527 1523 1518 1514 1509 1504 1500 1496 1493 1489 1486 1484 1481 1479 1478 1477 1477 1476 1477 1477 1477 1478 1479 1481 1484 1488 1492
1607 1603 1598 1592 1586 1581 1575 1570 1566 1560 1556 1551 1546 1541 1535 1530 1525 1520 1515 1511 1506 1502 1497 1492 1488 1484 1481 1478 1475 1473 1471 1469 1469 1469 1469 1470 1470 1471 1473 1475 1478 1481 1484
1607 1602 1597 1591 1585 1580 1574 1569 1564 1559 1554 1549 1544 1539 1534 1529 1523 1518 1513 1508 1503 1499 1494 1489 1485 1480 1476 1472 1469 1467 1464 1462 1461 1460 1461 1462 1463 1465 1466 1468 1471 1474 1478
1606 1601 1595 1589 1584 1579 1573 1568 1563 1558 1553 1548 1543 1537 1532 1527 1521 1516 1511 1506 1501 1496 1491 1486 1481 1476 1471 1467 1463 1460 1458 1455 1454 1453 1453 1454 1455 1457 1459 1461 1464 1467 1471
1605 1600 1594 1588 1583 1577 1572 1567 1562 1557 1551 1546 1540 1535 1530 1524 1519 1514 1509 1503 1498 1493 1488 1482 1478 1473 1468 1463 1457 1454 1451 1449 1447 1446 1445 1446 1448 1449 1451 1454 1457 1460 1464
1603 1598 1592 1586 1581 1575 1570 1565 1560 1555 1549 1543 1538 1532 1526 1521 1516 1511 1506 1500 1495 1490 1485 1480 1475 1471 1465 1459 1454 1448 1445 1442 1441 1440 1439 1439 1439 1441 1444 1446 1450 1453 1457
1602 1596 1590 1585 1579 1573 1568 1563 1557 1552 1546 1541 1535 1529 1523 1517 1512 1507 1502 1497 1492 1487 1482 1477 1472 1467 1463 1458 1451 1444 1439 1436 1435 1434 1433 1432 1433 1434 1436 1439 1442 1445 1449
1600 1594 1588 1582 1576 1570 1564 1558 1552 1547 1542 1537 1532 1526 1520 1514 1509 1504 1498 1493 1488 1483 1479 1474 1469 1464 1459 1455 1449 1440 1433 1431 1429 1427 1427 1427 1427 1427 1428 1431 1435 1438 1441
1597 1591 1585 1580 1574 1569 1563 1557 1551 1545 1539 1534 1529 1523 1517 1511 1505 1500 1495 1489 1484 1479 1474 1470 1466 1461 1456 1454 1450 1442 1433 1426 1423 1421 1421 1421 1421 1421 1422 1425 1428 1431 1435
1595 1589 1584 1579 1573 1567 1561 1555 1549 1542 1536 1530 1524 1518 1514 1508 1502 1497 1491 1485 1480 1475 1470 1466 1462 1458 1453 1450 1449 1447 1440 1432 1423 1414 1415 1415 1415 1415 1416 1418 1422 1425 1428
1593 1588 1583 1577 1571 1565 1558 1552 1545 1538 1532 1526 1520 1515 1510 1505 1499 1493 1487 1481 1476 1471 1466 1462 1458 1455 1450 1446 1444 1443 1441 1436 1431 1418 1409 1409 1410 1410 1410 1411 1414 1419 1422
1592 1586 1581 1575 1569 1563 1557 1550 1544 1537 1531 1524 1518 1511 1505 1500 1494 1489 1483 1477 1472 1467 1462 1457 1453 1450 1446 1443 1440 1437 1435 1433 1429 1425 1413 1404 1403 1404 1405 1406 1407 1411 1416
1590 1584 1579 1573 1567 1561 1554 1548 1542 1535 1528 1520 1513 1507 1500 1494 1489 1484 1478 1473 1467 1462 1457 1452 1448 1444 1441 1438 1435 1433 1431 1428 1425 1422 1416 1408 1401 1398 1399 1400 1401 1405 1409